GW3957 Weather Reports


Display with metric or nautical units.
time (UTC)temp
F
wind
direction
speed
MPH
gust
MPH
rain 1hr
in
rain 24hr
in
rain mn
in
humidity
%
barometer
mb
20260502194338 45 321 0.0 3.0 0.00 0.00 0.00 45 1010.4
20260502193833 46 245 2.0 6.0 0.00 0.00 0.00 47 1010.4
20260502193331 46 238 1.0 4.0 0.00 0.00 0.00 46 1010.4
20260502192826 46 237 0.0 2.0 0.00 0.00 0.00 48 1010.4
20260502192324 46 222 0.0 6.0 0.00 0.00 0.00 46 1010.5
20260502191821 47 256 1.0 4.0 0.00 0.00 0.00 43 1010.2
20260502191319 46 252 2.0 8.0 0.00 0.00 0.00 44 1010.6
20260502190816 45 269 1.0 6.0 0.00 0.00 0.00 50 1010.6
20260502190313 46 236 1.0 4.0 0.00 0.00 0.00 47 1010.5
20260502185808 48 297 7.0 9.0 0.00 0.00 0.00 43 1010.7
20260502185305 48 184 0.0 7.0 0.00 0.00 0.00 45 1010.7
20260502184801 46 236 0.0 4.0 0.00 0.00 0.00 50 1010.7
20260502184256 46 234 1.0 2.0 0.00 0.00 0.00 45 1010.4
20260502183754 46 235 1.0 4.0 0.00 0.00 0.00 46 1010.7
20260502183250 46 216 0.0 3.0 0.00 0.00 0.00 44 1010.7
20260502182745 46 100 2.0 6.0 0.00 0.00 0.00 45 1010.6
20260502182240 46 283 1.0 8.0 0.00 0.00 0.00 49 1010.6
20260502181737 45 265 2.0 3.0 0.00 0.00 0.00 49 1010.4
20260502181232 45 39 4.0 6.0 0.00 0.00 0.00 44 1010.5
20260502180728 45 225 0.0 3.0 0.00 0.00 0.00 49 1010.5
20260502180226 45 234 0.0 2.0 0.00 0.00 0.00 52 1010.5
20260502170144 46 269 0.0 0.0 0.00 0.00 0.00 51 1010.4
20260502164131 47 74 4.0 6.0 0.00 0.00 0.00 46 1010.5
20260502163627 47 304 2.0 4.0 0.00 0.00 0.00 49 1010.7
20260502163123 47 239 4.0 7.0 0.00 0.00 0.00 46 1010.4
20260502162620 46 120 0.0 2.0 0.00 0.00 0.00 48 1010.5
20260502162117 46 261 2.0 3.0 0.00 0.00 0.00 46 1010.7
20260502161614 47 80 3.0 4.0 0.00 0.00 0.00 46 1010.6
20260502161112 46 56 2.0 4.0 0.00 0.00 0.00 50 1010.6
20260502160610 47 262 2.0 8.0 0.00 0.00 0.00 44 1010.5
20260502160108 48 189 2.0 3.0 0.00 0.00 0.00 50 1010.7
20260502152028 46 272 2.0 2.0 0.00 0.00 0.00 58 1010.4
20260502151524 46 259 2.0 7.0 0.00 0.00 0.00 54 1010.4
20260502151022 45 242 1.0 6.0 0.00 0.00 0.00 61 1010.2
20260502150519 46 266 2.0 4.0 0.00 0.00 0.00 59 1010.4
20260502130404 41 237 0.0 4.0 0.00 0.00 0.00 88 1010.9
20260502123347 40 264 5.0 6.0 0.00 0.00 0.00 92 1010.9
20260502122844 39 191 1.0 2.0 0.00 0.00 0.00 94 1010.6
20260502122339 37 265 2.0 6.0 0.00 0.00 0.00 97 1010.9
20260502121838 36 305 2.0 3.0 0.00 0.00 0.00 98 1010.8
20260502121335 37 280 1.0 4.0 0.00 0.00 0.00 99 1010.7
20260502120832 36 233 0.0 1.0 0.00 0.00 0.00 99 1010.8
20260502120328 36 250 0.0 2.0 0.00 0.00 0.00 99 1010.7
20260502115826 36 249 0.0 2.0 0.00 0.00 0.00 99 1010.6
20260502115323 36 210 0.0 2.0 0.00 0.00 0.00 99 1010.8
20260502114819 36 243 1.0 2.0 0.00 0.00 0.00 99 1010.7
20260502114316 36 249 1.0 4.0 0.00 0.00 0.00 99 1010.9
20260502113813 36 259 2.0 3.0 0.00 0.00 0.00 99 1010.7
20260502113311 36 305 3.0 3.0 0.00 0.00 0.00 99 1010.8
20260502112809 36 233 0.0 1.0 0.00 0.00 0.00 99 1011.0
20260502112306 36 236 0.0 1.0 0.00 0.00 0.00 99 1010.8
20260502111803 36 190 0.0 0.0 0.00 0.00 0.00 99 1010.8
20260502111301 36 263 2.0 2.0 0.00 0.00 0.00 99 1010.6
20260502110758 36 208 1.0 1.0 0.00 0.00 0.00 99 1010.5
20260502110256 36 254 0.0 0.0 0.00 0.00 0.00 99 1010.4
20260502105754 36 238 0.0 1.0 0.00 0.21 0.21 99 1010.7
20260502105249 35 229 0.0 1.0 0.00 0.21 0.21 99 1010.5
20260502104748 35 216 0.0 0.0 0.00 0.21 0.21 99 1010.6
20260502104245 35 279 1.0 1.0 0.00 0.21 0.21 99 1010.4
20260502103742 35 215 0.0 1.0 0.00 0.21 0.21 99 1010.4
20260502103240 35 271 2.0 4.0 0.00 0.21 0.21 99 1010.4
20260502102736 35 258 1.0 2.0 0.00 0.21 0.21 99 1010.2
20260502102233 35 226 0.0 2.0 0.00 0.21 0.21 99 1010.2
20260502101731 35 239 1.0 3.0 0.00 0.21 0.21 99 1010.2
20260502101229 35 233 0.0 1.0 0.00 0.21 0.21 99 1010.1
20260502100727 35 234 2.0 3.0 0.00 0.21 0.21 99 1010.1
20260502100225 36 144 1.0 2.0 0.00 0.21 0.21 99 1010.1
20260502091159 37 242 1.0 2.0 0.00 0.20 0.20 99 1009.7
20260502090657 37 215 0.0 1.0 0.00 0.20 0.20 99 1009.8
20260502090154 37 182 1.0 2.0 0.00 0.20 0.20 99 1009.6
20260502071049 39 244 0.0 0.0 0.00 0.19 0.19 99 1009.5
20260502070547 39 230 0.0 2.0 0.00 0.19 0.19 99 1009.4
20260502070044 39 243 1.0 3.0 0.00 0.19 0.19 99 1009.7
20260502065543 39 219 0.0 0.0 0.00 0.19 0.19 99 1009.6
20260502065040 39 247 0.0 1.0 0.00 0.19 0.19 99 1009.5
20260502064539 39 240 0.0 1.0 0.00 0.19 0.19 99 1009.6
20260502064035 39 239 0.0 1.0 0.00 0.19 0.19 99 1009.9
20260502063533 39 250 0.0 1.0 0.00 0.19 0.19 99 1009.9
20260502063025 39 246 0.0 0.0 0.00 0.19 0.19 99 1009.8
20260502062522 39 301 2.0 2.0 0.05 0.19 0.19 99 1009.6
20260502062021 39 203 0.0 1.0 0.05 0.19 0.19 99 1009.9
20260502061518 40 197 0.0 1.0 0.00 0.18 0.18 99 1009.9
20260502061015 40 236 0.0 1.0 0.07 0.18 0.18 99 1009.9
20260502060509 40 235 0.0 0.0 0.07 0.18 0.18 99 1009.9
20260502060007 41 194 0.0 1.0 0.00 0.17 0.17 99 1010.0
20260502055504 41 193 1.0 6.0 0.00 0.17 0.17 99 1010.2
20260502055003 41 230 0.0 0.0 0.00 0.17 0.17 99 1009.8
20260502054500 41 315 2.0 2.0 0.00 0.17 0.17 99 1009.9
20260502053958 41 131 0.0 0.0 0.00 0.17 0.17 99 1009.9
20260502053454 41 215 0.0 0.0 0.00 0.17 0.17 99 1009.9
20260502052952 41 214 0.0 0.0 0.00 0.17 0.17 99 1009.8
20260502052450 41 195 0.0 0.0 0.00 0.17 0.17 99 1009.8
20260502051949 41 209 0.0 0.0 0.00 0.17 0.17 99 1010.0
20260502051446 41 190 0.0 0.0 0.00 0.17 0.17 99 1009.9
20260502050943 41 209 0.0 0.0 0.00 0.17 0.17 99 1010.0
20260502050440 41 209 0.0 0.0 0.00 0.17 0.17 99 1010.0
20260502045937 41 205 0.0 0.0 0.00 0.17 0.17 99 1010.2
20260502045433 41 210 0.0 1.0 0.00 0.17 0.17 99 1010.2
20260502044931 41 215 0.0 0.0 0.00 0.17 0.17 99 1010.1
20260502044426 41 175 0.0 0.0 0.00 0.17 0.17 99 1010.0
20260502043923 41 210 0.0 0.0 0.00 0.17 0.17 99 1010.0
20260502043421 41 206 0.0 0.0 0.00 0.17 0.17 99 1009.9
20260502042921 41 194 0.0 0.0 0.00 0.17 0.17 99 1010.4
20260502042418 41 196 0.0 0.0 0.05 0.17 0.17 99 1010.1
20260502041915 41 214 0.0 0.0 0.05 0.17 0.17 99 1010.2
20260502041413 41 210 0.0 0.0 0.00 0.16 0.16 99 1009.9
20260502040910 41 210 0.0 0.0 0.00 0.16 0.16 99 1010.1
20260502040406 41 167 0.0 0.0 0.00 0.16 0.16 99 1010.0
20260502035902 41 190 0.0 0.0 0.00 0.16 0.16 99 1010.4
20260502035359 41 208 0.0 0.0 0.07 0.16 0.16 99 1010.2
20260502034856 41 195 0.0 0.0 0.07 0.16 0.16 99 1010.1
20260502034355 41 191 0.0 0.0 0.00 0.15 0.15 99 1010.5
20260502033853 41 186 0.0 0.0 0.00 0.15 0.15 99 1010.4
20260502033350 41 185 0.0 0.0 0.05 0.15 0.15 99 1010.2
20260502032847 41 182 0.0 0.0 0.05 0.15 0.15 99 1010.1
20260502032343 41 220 0.0 0.0 0.00 0.14 0.14 99 1010.2
20260502031841 41 219 0.0 0.0 0.00 0.14 0.14 99 1010.5
20260502031339 41 210 0.0 0.0 0.00 0.14 0.14 99 1010.5
20260502030837 41 209 0.0 0.0 0.00 0.14 0.14 99 1010.4
20260502030335 41 209 0.0 0.0 0.00 0.14 0.14 99 1010.4
20260502025832 41 210 0.0 0.0 0.00 0.14 0.14 99 1010.4
20260502025330 41 209 0.0 0.0 0.00 0.14 0.14 99 1010.8
20260502024827 41 210 0.0 0.0 0.00 0.14 0.14 99 1010.7
20260502024325 41 218 0.0 0.0 0.07 0.14 0.14 99 1010.7
20260502023822 41 218 0.0 0.0 0.07 0.14 0.14 99 1010.7
20260502023320 41 218 0.0 0.0 0.00 0.13 0.13 99 1011.1
20260502022818 41 218 0.0 0.0 0.00 0.13 0.13 99 1011.1
20260502022314 41 218 0.0 0.0 0.00 0.13 0.13 99 1010.9
20260502021811 41 218 0.0 0.0 0.05 0.13 0.13 99 1011.0
20260502021308 41 218 0.0 0.0 0.00 0.12 0.12 99 1011.1
20260502020805 41 218 0.0 0.0 0.00 0.12 0.12 99 1011.1
20260502020302 41 218 0.0 0.0 0.00 0.12 0.12 99 1011.0
20260502015800 41 218 0.0 0.0 0.00 0.12 0.12 99 1011.2
20260502015256 41 218 0.0 0.0 0.00 0.12 0.12 99 1011.1
20260502014754 41 218 0.0 0.0 0.07 0.12 0.12 99 1011.2
20260502014250 41 218 0.0 0.0 0.07 0.12 0.12 99 1011.2
20260502013747 41 218 0.0 0.0 0.00 0.11 0.11 99 1011.1
20260502013242 41 169 0.0 0.0 0.05 0.11 0.11 99 1011.3
20260502012739 41 203 0.0 0.0 0.12 0.11 0.11 99 1011.3
20260502012237 41 216 0.0 0.0 0.12 0.10 0.10 99 1011.2
20260502011734 41 210 0.0 0.0 0.05 0.09 0.09 99 1011.2
20260502011230 41 212 0.0 0.0 0.00 0.08 0.08 99 1011.3
20260502010728 41 209 0.0 0.0 0.07 0.08 0.08 99 1011.0
20260502010223 41 209 0.0 0.0 0.00 0.07 0.07 99 1011.0
20260502005721 41 190 0.0 0.0 0.07 0.07 0.07 98 1011.0
20260502005219 41 231 0.0 0.0 0.12 0.07 0.07 98 1011.0
20260502004715 41 220 0.0 0.0 0.05 0.06 0.06 98 1011.1
20260502004211 42 239 0.0 0.0 0.07 0.05 0.05 98 1011.1
20260502003710 41 232 0.0 0.0 0.07 0.05 0.05 97 1011.3
20260502003207 42 229 0.0 1.0 0.05 0.04 0.04 97 1011.1
20260502002702 42 254 0.0 1.0 0.05 0.04 0.04 97 1011.0
20260502002200 42 258 1.0 1.0 0.07 0.03 0.03 96 1011.2
20260502001657 42 224 0.0 0.0 0.07 0.03 0.03 96 1011.0
20260502001155 42 232 0.0 0.0 0.05 0.02 0.02 95 1011.0
20260502000652 42 234 0.0 0.0 0.05 0.02 0.02 94 1011.1
20260502000150 43 225 0.0 0.0 0.00 0.01 0.01 94 1011.1
20260501235646 43 239 0.0 0.0 0.07 0.01 0.01 93 1010.8
20260501235142 43 213 0.0 0.0 0.07 0.01 0.01 92 1010.8
20260501234637 43 225 0.0 0.0 0.00 0.00 0.00 92 1010.9
20260501234135 44 228 0.0 0.0 0.00 0.00 0.00 91 1010.7
20260501233633 44 208 0.0 0.0 0.00 0.00 0.00 90 1010.7
20260501233130 44 229 0.0 0.0 0.00 0.00 0.00 88 1010.7
20260501232626 44 229 0.0 0.0 0.00 0.00 0.00 85 1010.6
20260501232124 44 231 0.0 0.0 0.00 0.00 0.00 85 1010.6
20260501231621 45 238 0.0 0.0 0.00 0.00 0.00 83 1010.6
20260501231119 45 234 0.0 0.0 0.00 0.00 0.00 81 1010.7
20260501230617 45 197 0.0 0.0 0.00 0.00 0.00 80 1010.8
20260501230115 46 225 0.0 0.0 0.00 0.00 0.00 82 1010.6
20260501225613 46 218 0.0 0.0 0.00 0.00 0.00 80 1010.7
20260501225108 46 219 0.0 2.0 0.00 0.00 0.00 78 1010.8
20260501224606 47 213 0.0 0.0 0.00 0.00 0.00 75 1010.7
20260501224103 47 228 0.0 0.0 0.00 0.00 0.00 74 1010.5
20260501223600 47 228 0.0 0.0 0.00 0.00 0.00 71 1010.6
20260501223055 47 206 0.0 1.0 0.00 0.00 0.00 71 1010.6
20260501222552 47 254 0.0 1.0 0.00 0.00 0.00 74 1010.6
20260501222049 47 242 0.0 0.0 0.00 0.00 0.00 72 1010.8
20260501221545 47 224 0.0 2.0 0.00 0.00 0.00 72 1010.6
20260501221043 47 208 0.0 1.0 0.00 0.00 0.00 71 1010.6
20260501220541 47 209 0.0 1.0 0.00 0.00 0.00 72 1010.6
20260501220037 48 217 0.0 0.0 0.00 0.00 0.00 72 1010.7
20260501215533 48 147 0.0 0.0 0.00 0.00 0.00 72 1010.6
20260501215029 48 218 0.0 2.0 0.00 0.00 0.00 71 1010.9
20260501214525 47 220 0.0 1.0 0.00 0.00 0.00 71 1010.9
20260501214020 48 199 1.0 2.0 0.00 0.00 0.00 71 1010.8
20260501213518 48 227 0.0 0.0 0.00 0.00 0.00 68 1010.7
20260501213014 48 236 0.0 0.0 0.00 0.00 0.00 68 1010.9
20260501212510 48 233 0.0 0.0 0.00 0.00 0.00 70 1010.8
20260501212008 48 238 0.0 1.0 0.00 0.00 0.00 67 1010.7
20260501211504 47 246 1.0 2.0 0.00 0.00 0.00 67 1010.9
20260501211002 48 165 1.0 2.0 0.00 0.00 0.00 66 1010.7
20260501210458 48 219 0.0 2.0 0.00 0.00 0.00 69 1010.7
20260501205955 48 244 0.0 0.0 0.00 0.00 0.00 67 1010.7
20260501205451 48 238 0.0 1.0 0.00 0.00 0.00 69 1010.6
20260501204949 48 220 0.0 1.0 0.00 0.00 0.00 68 1010.8
20260501204445 48 199 0.0 2.0 0.00 0.00 0.00 68 1010.8
20260501203941 49 219 0.0 2.0 0.00 0.00 0.00 64 1010.8
20260501203438 48 268 1.0 1.0 0.00 0.00 0.00 60 1010.5
20260501202936 49 250 0.0 4.0 0.00 0.00 0.00 59 1010.5
20260501202432 49 272 1.0 1.0 0.00 0.00 0.00 59 1010.6
20260501201929 49 229 0.0 1.0 0.00 0.00 0.00 58 1010.4
20260501201426 50 260 2.0 2.0 0.00 0.00 0.00 55 1010.6
20260501200923 50 113 1.0 1.0 0.00 0.00 0.00 54 1010.4
20260501200420 51 192 1.0 2.0 0.00 0.00 0.00 53 1010.5
20260501195917 51 241 0.0 4.0 0.00 0.00 0.00 52 1010.2
20260501195414 51 269 1.0 2.0 0.00 0.00 0.00 50 1010.1
20260501194909 52 193 2.0 2.0 0.00 0.00 0.00 51 1010.2